Home > Weather > Tiraspol > Past weeks

Flag for Moldova Weather for the Past 2 Weeks in Tiraspol, Moldova

Now
57 °F

Clear.


Feels Like: 54 °F
Forecast: 51 / 68 °F
Wind: 13 mph from North

Location: Chisinau International Airport

Current Time: May 5, 2016 at 4:39:35 AM

Latest Report: May 5, 2016 at 4:00 AM


Visibility: 10 mi

Pressure: 29.86 "Hg

Humidity: 55%

Dew Point: 41 °F

Location of TiraspolLocation

Historic Weather in Tiraspol — Graph

°F

Tiraspol Temperature Yesterday

Maximum temperature yesterday: 64 °F (at 2:30 PM)
Minimum temperature yesterday: 54 °F (at 5:30 AM)
Average temperature yesterday: 59 °F

High & Low Weather Summary for the Past Weeks

 TemperatureHumidityPressure
High73 °F (May 1, 3:00 PM)100% (Apr 24, 6:30 AM)30.18 "Hg (Apr 24, 6:30 AM)
Low41 °F (Apr 21, 6:30 AM)28% (Apr 21, 4:30 PM)29.45 "Hg (Apr 25, 6:30 AM)
Average55 °F63%29.91 "Hg
* Reported Apr 20 3:00 AM — May 5 3:30 AM, Tiraspol, Weather by CustomWeather, © 2016

Note: Actual official high and low records may vary slightly from our data, if they occured in-between our weather recording intervals... More about our weather records

Advertising

Tiraspol Weather History for the Previous 24 Hours

Scroll right to see more
 ConditionsComfort  
Time TempWeatherWind HumidityBarometerVisibility
3:30 AM
Thu, May 5
57 °FClear.13 mph55%29.86 "Hg10 mi
3:00 AM59 °FClear.14 mph51%29.86 "Hg10 mi
2:30 AM59 °FClear.13 mph51%29.86 "Hg10 mi
2:00 AM59 °FClear.12 mph51%29.86 "Hg10 mi
1:30 AM59 °FClear.12 mph51%29.86 "Hg10 mi
1:00 AM59 °FClear.12 mph51%29.86 "Hg10 mi
12:30 AM59 °FClear.12 mph51%29.86 "Hg10 mi
12:00 AM59 °FClear.12 mph55%29.86 "Hg10 mi
11:30 PM
Wed, May 4
59 °FClear.10 mph55%29.86 "Hg10 mi
11:00 PM59 °FClear.10 mph55%29.86 "Hg10 mi
10:30 PM59 °FClear.10 mph55%29.86 "Hg10 mi
10:00 PM61 °FClear.10 mph52%29.86 "Hg10 mi
9:30 PM61 °FClear.10 mph52%29.86 "Hg10 mi
9:00 PM61 °FSunny.10 mph48%29.86 "Hg10 mi
8:30 PM61 °FSunny.9 mph48%29.83 "Hg10 mi
8:00 PM63 °FSunny.10 mph45%29.83 "Hg10 mi
7:30 PM63 °FSunny.12 mph45%29.83 "Hg10 mi
7:00 PM63 °FPassing clouds.13 mph45%29.83 "HgN/A
6:30 PM64 °FPassing clouds.15 mph43%29.83 "HgN/A
6:00 PM64 °FPassing clouds.16 mph43%29.83 "HgN/A
5:30 PM64 °FPassing clouds.18 mph43%29.83 "HgN/A
5:00 PM64 °FScattered clouds.18 mph40%29.83 "HgN/A
4:30 PM64 °FScattered clouds.18 mph43%29.83 "HgN/A
4:00 PM64 °FScattered clouds.20 mph43%29.83 "HgN/A
3:30 PM64 °FScattered clouds.18 mph46%29.83 "HgN/A
3:00 PM64 °FScattered clouds.17 mph43%29.83 "HgN/A
2:30 PM64 °FScattered clouds.18 mph43%29.83 "HgN/A
2:00 PM63 °FScattered clouds.18 mph45%29.83 "HgN/A
1:30 PM63 °FPassing clouds.22 mph45%29.83 "HgN/A
1:00 PM63 °FPassing clouds.22 mph42%29.80 "HgN/A
12:30 PM63 °FScattered clouds.23 mph42%29.80 "HgN/A
12:00 PM63 °FScattered clouds.22 mph45%29.80 "HgN/A
11:30 AM61 °FScattered clouds.21 mph48%29.80 "HgN/A
11:00 AM59 °FScattered clouds.16 mph55%29.80 "HgN/A
10:30 AM59 °FScattered clouds.14 mph55%29.80 "HgN/A
10:00 AM59 °FScattered clouds.14 mph59%29.80 "HgN/A
9:30 AM57 °FPassing clouds.16 mph59%29.80 "HgN/A
9:00 AM57 °FSunny.15 mph59%29.80 "Hg10 mi
8:30 AM57 °FSunny.15 mph59%29.80 "Hg10 mi
8:00 AM57 °FSunny.14 mph59%29.77 "Hg10 mi
7:30 AM55 °FPassing clouds.10 mph63%29.77 "HgN/A
7:00 AM55 °FSunny.8 mph59%29.77 "Hg10 mi
6:30 AM54 °FClear.7 mph63%29.77 "Hg10 mi
6:00 AM54 °FClear.10 mph63%29.77 "Hg10 mi
5:30 AM54 °FClear.10 mph63%29.77 "Hg10 mi
5:00 AM55 °FClear.12 mph59%29.77 "Hg10 mi
4:30 AM55 °FClear.10 mph59%29.77 "Hg10 mi
4:00 AM55 °FClear.9 mph59%29.77 "Hg10 mi
Weather by CustomWeather, © 2016

See weather overviewHow to use our weather pages